Weather History for CWYW - March, 2014

Change the Weather History Date:

Saturday, March 29, 2014

  Actual Average Record
Temperature  
Mean Temperature 7 °F -  
Max Temperature 32 °F - - ()
Min Temperature -18 °F - - ()
Degree Days  
Heating Degree Days 58    
Moisture  
Dew Point -6 °F    
Average Humidity 52    
Maximum Humidity 79    
Minimum Humidity 15    
Precipitation  
Precipitation 0.00 in - - ()
Sea Level Pressure  
Sea Level Pressure 30.24 in    
Wind  
Wind Speed 3 mph ()    
Max Wind Speed 14 mph    
Max Gust Speed -    
T = Trace of Precipitation, MM = Missing Value Source: Averaged Metar Reports

Daily Weather History Graph

Daily Weather History Graph

Search for Another Location

Airport or City:

Trip Planner

Search our weather history database for the weather conditions in past years. The results will help you decide how hot, cold, wet, or windy it might be!

Date:

Astronomy

Mar. 29, 2014 Rise Set
Actual Time 7:38 AM EDT 8:23 PM EDT
Civil Twilight 7:05 AM EDT 8:56 PM EDT
Nautical Twilight 6:26 AM EDT 9:35 PM EDT
Astronomical Twilight 5:45 AM EDT 10:17 PM EDT
Moon 6:54 AM EDT (3/29) 7:24 PM EDT (3/29)
Length of Visible Light 13h 50m
Length of Day
12h 44m
Waning Crescent, 2% of the Moon is Illuminated
Mar 29
Waning Crescent
Mar 30
New
Apr 7
First Quarter
Apr 15
Full
Apr 22
Last Quarter

Hourly Weather History & Observations

Time (EDT) Temp. Windchill Dew Point Humidity Pressure Visibility Wind Dir Wind Speed Gust Speed Precip Events Conditions
12:00 AM -4.0 °F - -11.7 °F 69% 30.23 in - Calm Calm - N/A   Unknown
1:00 AM -6.5 °F - -13.0 °F 73% 30.25 in - Calm Calm - N/A   Unknown
2:00 AM -8 °F - -14 °F 65% 30.25 in - Calm Calm - -  
2:00 AM -8.5 °F - -13.5 °F 79% 30.25 in - Calm Calm - N/A   Unknown
3:00 AM -11.4 °F - -16.4 °F 78% 30.27 in - Calm Calm - N/A   Unknown
4:00 AM -13.0 °F - -17.9 °F 79% 30.27 in - Calm Calm - N/A   Unknown
5:00 AM -15 °F - -20 °F 65% 30.28 in - Calm Calm - -  
5:00 AM -14.8 °F - -20.2 °F 77% 30.28 in - Calm Calm - N/A   Unknown
6:00 AM -16.4 °F - -21.6 °F 77% 30.30 in - WNW 1.2 mph - N/A   Unknown
7:00 AM -18.0 °F - -24.0 °F 74% 30.31 in - Calm Calm - N/A   Unknown
8:00 AM -18 °F - -24 °F 62% 30.32 in - WNW 1.2 mph - -  
8:00 AM -18.0 °F - -23.6 °F 76% 30.32 in - Calm Calm - N/A   Unknown
9:00 AM -11.4 °F - -17.0 °F 76% 30.33 in - Calm Calm - N/A   Unknown
10:00 AM - - - N/A% 30.31 in - SE 2.3 mph - N/A   Unknown
11:00 AM 22 °F - -4 °F 18% 30.30 in - SSE 4.6 mph - -  
11:00 AM - - - N/A% 30.30 in - SSE 4.6 mph - N/A   Unknown
12:00 PM - - - N/A% 30.30 in - SSW 10.4 mph - N/A   Unknown
1:00 PM - - - N/A% 30.29 in - SSW 10.4 mph - N/A   Unknown
2:00 PM 30 °F - 0 °F 15% 30.28 in - SW 8.1 mph - -  
2:00 PM 29.7 °F 20.7 °F 0.5 °F 29% 30.28 in - SW 10.4 mph - N/A   Unknown
3:00 PM 30.4 °F 21.0 °F 2.8 °F 31% 30.26 in - SE 11.5 mph - N/A   Unknown
4:00 PM 30.9 °F 22.2 °F 1.0 °F 28% 30.23 in - SSE 10.4 mph - N/A   Unknown
5:00 PM 31 °F - 3 °F 17% 30.21 in - SE 11.5 mph - -  
5:00 PM 31.1 °F 20.9 °F 2.8 °F 30% 30.21 in - SE 13.8 mph - N/A   Unknown
6:00 PM 31.3 °F 21.6 °F 3.2 °F 30% 30.19 in - SSE 12.7 mph - N/A   Unknown
7:00 PM 29.8 °F 19.8 °F 3.2 °F 32% 30.18 in - SSE 12.7 mph - N/A   Unknown
8:00 PM 27 °F - 8 °F 30% 30.16 in - SE 6.9 mph - -  
8:00 PM 26.6 °F 20.0 °F 7.9 °F 45% 30.16 in - SE 5.8 mph - N/A   Unknown
9:00 PM 22.3 °F 17.6 °F 7.7 °F 54% 30.15 in - SSE 3.5 mph - N/A   Unknown
10:00 PM 23.0 °F 15.8 °F 8.4 °F 54% 30.12 in - SSE 5.8 mph - N/A   Unknown
11:00 PM 25 °F - 11 °F 42% 30.10 in - SSE 9.2 mph - -  
11:00 PM 24.6 °F 14.4 °F 11.3 °F 57% 30.10 in - SSE 10.4 mph - N/A   Unknown